Weather in Severo-Kurilsk

Russia / Sakhalin District     50°40′34″N   156°07′26″E
temp.,
°C
wind,
m/s
gust,
m/s
humid.,
%
clouds,
%
prec.,
mm/h
press.,
hPa
HPBL,
m
5 march, fri
fri523:00−3wsw17229291 1.9 10191343
02:00−3sw14219397 1.4 10161328
05:00−2wsw17229698 4.6 10151118
08:00−1wsw12179798 2.3 1015837
11:00−1sw10169599 4.8 1015856
14:000sw101789100 1.4 1011963
17:000sw11198696 1.6 1010917
20:00−1sw9179772 1.2 1010752
6 march, sat
sat623:000sw10179786 2.9 1009668
02:000s5889100 0.4 1006219
05:00+1ssw112288100 1.3 1003760
08:00+1sw10218795 0.1 1001734
11:00−1wsw10139998 1.3 1001638
14:00−3wsw101490100 2.7 999997
17:00−5w6796100 4.5 997506
20:00−7nw121394100 4.7 9981027
7 march, sun
sun723:00−8nw111280100 6.3 10001266
02:00−10wnw141486100 1.4 10011534
05:00−11wnw151687100 2.4 10021924
08:00−11wnw151682100 1.3 10052137
11:00−11wnw141583100 1.8 10061883
14:00−11w141582100 0.5 10061756
17:00−10w151687100 1.0 10071719
20:00−10wnw141692100 1.9 10081469
8 march, mon
mon823:00−10w111276100 3.1 10091644
02:00−10wnw131482100 0.6 10091740
05:00−10wnw121278100 1.1 10101650
08:00−10w101177100 0.4 10121561
11:00−10w111279100 0.8 10131678
14:00−9wnw111380100 0.4 10131680
17:00−9w111378100 0.9 10121729
20:00−9w111381100 0.6 10131420
9 march, tue
tue923:00−9w91283100 1.1 10141251
02:00−9w101279100 0.5 10141403
05:00−8wnw101281100 1.1 10151370
08:00−8wnw81181100 0.5 10171390
11:00−7w6976100 0.9 10181259
14:00−6wsw6978100 0.4 10181187
17:00−5wsw6977100 0.7 10191172
20:00−6sw7884100 0.2 1020661